EHI
0 0 0 0 0 0 0 1 2 3 3 3 3 3 3 3 3 3 3 3 3 3 3 3 3 3 1 1 1 0 0 0 0 0 0 0 0 0 1 2 2 1 0
0 0 0 0 0 0 0 1 2 2 3 3 3 3 3 3 3 3 3 3 3 3 3 3 3 3 2 2 1 1 0 0 0 0 0 0 0 0 1 2 2 1 0
0 0 0 0 0 0 0 0 1 1 1 2 3 3 3 3 3 3 3 3 3 3 3 3 3 3 3 3 2 1 0 0 0 0 0 0 0 0 0 1 1 1 1
1 0 0 0 0 0 0 0 0 0 0 1 2 3 3 3 3 3 3 3 3 3 3 3 3 3 3 3 3 2 1 0 0 0 0 0 0 0 0 0 0 0 0
2 1 0 0 0 0 0 0 0 0 0 0 1 1 3 3 3 3 3 3 3 3 3 3 3 3 2 2 2 2 1 0 0 0 0 0 0 0 0 0 0 0 0
2 1 0 0 0 0 0 0 0 0 0 0 0 1 2 3 1 1 2 3 3 3 3 3 3 1 1 1 1 1 0 0 0 0 0 0 0 0 0 0 0 0 0
2 1 0 0 0 0 0 0 0 0 0 0 0 1 2 2 1 0 1 2 3 3 3 3 3 1 0 0 0 0 0 0 0 0 0 0 0 0 0 0 0 0 0
1 1 0 0 0 0 0 0 0 0 0 1 1 1 2 2 1 0 0 1 3 3 3 3 3 2 1 0 0 0 0 0 0 0 0 0 0 0 0 0 0 0 0
0 0 0 0 0 0 0 0 0 0 0 1 1 1 1 1 0 0 0 1 3 3 3 3 3 2 1 0 0 0 0 0 0 0 0 0 0 0 0 0 0 0 0
0 0 0 0 0 0 0 0 0 0 0 1 1 1 1 0 0 0 1 2 3 3 3 3 2 1 0 0 0 0 0 0 0 0 0 0 0 0 0 0 0 0 0
0 0 0 0 0 0 0 0 0 0 1 1 2 2 1 0 0 0 1 2 3 3 3 3 2 0 0 0 0 0 0 0 0 0 0 0 0 0 0 0 0 0 0
0 0 1 1 1 0 0 0 0 1 2 2 3 3 2 1 0 0 0 1 1 2 3 2 1 0 0 0 0 0 0 0 0 0 0 0 0 0 0 0 0 0 0
0 1 2 2 2 1 0 0 0 1 2 3 3 3 3 2 1 0 0 0 0 1 2 1 0 0 0 0 0 0 0 0 0 0 0 0 0 0 0 0 0 0 0
1 2 3 3 3 2 1 0 0 0 1 3 3 3 3 3 2 1 0 0 0 0 0 0 0 0 0 0 0 0 0 0 0 0 0 0 0 0 0 0 0 0 0
3 3 3 3 3 3 2 1 0 0 1 2 2 2 2 2 1 1 1 0 0 0 0 0 0 0 0 0 0 0 0 0 0 0 0 0 0 0 0 0 0 0 0
3 3 3 3 3 3 2 1 0 0 0 1 1 1 1 1 0 0 0 0 0 0 0 0 0 0 0 0 0 0 0 0 0 0 0 0 0 0 0 0 0 0 0
2 2 2 2 2 2 1 0 0 0 0 0 0 0 0 0 0 0 0 0 0 0 0 0 0 0 0 0 0 0 0 0 0 0 0 0 0 0 0 0 0 0 0
1 1 1 1 1 1 0 0 0 0 0 0 0 0 0 0 0 0 0 0 0 0 0 0 0 0 0 0 0 0 0 0 0 0 0 0 0 0 0 0 0 0 0
0 0 0 0 0 0 0 0 0 0 0 0 0 0 0 0 0 0 0 0 0 0 0 0 0 0 0 0 0 0 0 0 0 0 0 0 0 0 0 0 0 0 0
0 0 0 0 0 0 0 0 0 0 0 0 0 0 0 0 0 0 0 0 0 0 0 0 0 0 0 0 0 0 0 0 0 0 0 0 0 0 0 0 0 0 0
0 0 0 0 0 0 0 0 0 0 0 0 0 0 0 0 0 0 0 0 0 0 0 0 0 0 0 0 0 0 0 0 0 0 0 0 0 0 0 0 0 0 0
0 0 0 0 0 0 0 0 0 0 0 0 0 0 0 0 0 0 0 0 0 0 0 0 0 0 0 0 0 0 0 0 0 0 0 0 0 0 0 0 0 0 0
0 0 0 0 0 0 0 0 0 0 0 0 0 0 0 0 0 0 0 0 0 0 0 0 0 0 0 0 0 0 0 0 0 0 0 0 0 0 0 0 0 0 0
0 0 0 0 0 0 0 0 0 0 0 0 0 0 0 0 0 0 0 0 0 0 0 0 0 0 0 0 0 0 0 0 0 0 0 0 0 0 0 0 0 0 0
0 0 0 0 0 0 0 0 0 0 0 0 0 0 0 0 0 0 0 0 0 0 0 0 0 0 0 0 0 0 0 0 0 0 0 0 0 0 0 0 0 0 0
0 0 0 0 0 0 0 0 0 0 0 0 0 0 0 0 0 0 0 0 0 0 0 0 0 0 0 0 0 0 0 0 0 0 0 0 0 0 0 0 0 0 0
Wind_Speed
4 4 4 4 3 4 3 3 3 3 3 3 2 2 2 2 2 2 2 2 2 2 2 2 2 2 1 1 1 0 1 1 1 2 2 2 2 1 2 1 1 1 3
4 4 4 4 4 4 4 4 4 3 3 3 2 2 2 2 2 3 3 2 2 2 2 2 3 2 2 1 1 1 1 1 0 1 2 1 1 1 1 1 1 1 1
4 4 4 5 5 5 4 4 4 4 3 3 3 3 3 3 3 3 3 2 2 2 2 2 2 3 3 2 1 1 1 1 0 1 2 1 1 1 0 0 0 0 0
4 4 4 4 4 5 4 4 4 3 3 3 3 3 3 3 3 3 3 2 2 2 2 2 2 2 2 2 1 1 1 1 1 1 1 1 1 0 1 1 1 0 1
5 4 4 4 4 4 4 4 4 4 4 3 3 3 3 2 2 2 3 3 3 2 2 2 2 3 3 2 1 1 1 1 1 1 1 1 1 1 1 1 2 2 1
5 4 4 4 4 4 4 4 4 4 4 4 4 4 3 2 3 1 2 3 3 3 3 3 3 4 4 3 2 1 1 1 1 2 2 2 2 2 1 2 2 2 2
4 4 4 4 4 4 3 3 3 4 4 4 4 4 4 4 5 4 3 3 3 3 3 3 2 2 3 3 4 5 3 1 2 3 3 2 2 1 2 3 3 3 3
4 4 4 4 4 4 3 3 4 4 4 3 4 4 3 3 5 5 4 5 3 3 3 3 3 3 2 1 2 3 2 2 2 3 3 2 2 2 2 3 4 3 3
4 4 4 5 4 4 4 4 3 3 3 3 3 4 4 4 5 5 5 3 3 3 3 2 2 2 3 1 3 3 3 2 2 1 3 3 3 2 2 2 2 3 3
4 4 4 4 4 4 4 4 3 3 3 3 3 3 3 3 5 5 6 4 4 3 3 3 2 1 3 3 4 3 3 2 2 2 2 2 2 2 3 4 3 3 3
3 3 3 4 4 4 3 3 3 3 3 3 3 3 3 2 5 5 4 3 3 3 3 2 2 4 3 3 3 3 1 2 2 2 1 1 1 2 2 3 3 4 4
3 3 4 3 3 3 4 3 3 3 4 4 3 3 2 2 2 5 4 3 3 3 2 2 2 5 3 3 3 0 1 1 2 2 2 2 2 2 2 2 3 3 4
4 4 4 4 3 3 4 4 3 3 3 3 3 3 3 2 3 4 5 5 3 3 1 2 2 3 3 3 3 2 3 3 2 2 2 2 2 2 1 1 2 3 4
4 4 4 4 3 3 2 3 3 3 3 4 3 3 3 3 2 3 3 4 5 4 2 3 4 4 3 1 2 4 3 2 3 3 2 2 1 1 2 2 2 2 3
4 4 4 3 3 3 2 2 3 3 2 3 3 3 3 3 2 1 2 3 3 3 3 3 3 3 3 2 2 2 2 2 3 3 3 2 2 3 3 3 3 3 4
3 3 3 3 3 3 2 2 1 0 1 1 1 2 2 1 2 4 4 3 2 3 4 4 4 3 3 3 3 3 3 3 3 3 3 3 3 4 4 3 3 4 5
3 3 2 3 3 3 3 3 2 1 1 2 3 3 3 2 3 4 4 4 4 6 5 4 4 4 4 4 3 4 4 4 3 4 4 4 4 4 4 4 4 4 5
3 3 3 3 3 3 3 3 3 3 3 2 3 5 5 5 4 5 5 5 4 5 4 4 4 4 4 4 4 4 4 4 4 4 4 5 5 5 5 5 5 5 5
3 2 2 2 3 3 4 4 4 4 4 3 3 3 5 5 5 5 6 5 5 5 5 5 5 5 4 4 4 4 4 4 4 4 5 5 4 4 5 5 5 5 6
3 3 3 3 3 4 4 4 4 4 4 4 4 3 3 4 4 4 5 5 5 5 5 5 5 5 5 5 5 5 5 5 5 5 5 5 5 5 5 6 5 5 5
3 3 4 4 4 4 4 4 5 5 5 4 4 4 4 5 5 5 5 5 5 5 5 5 5 5 5 5 5 6 7 6 5 5 5 5 5 5 5 5 5 6 5
3 3 4 4 4 4 4 4 4 5 5 6 4 4 6 6 5 5 5 5 6 5 5 5 5 5 5 5 5 6 6 6 6 5 5 5 5 5 5 5 5 6 5
3 4 4 4 4 4 4 5 4 5 5 5 4 4 4 5 5 5 5 5 5 5 5 5 6 6 6 5 6 6 6 6 6 6 6 6 6 6 6 6 7 7 6
3 4 4 4 4 4 4 4 4 4 5 5 5 5 5 5 5 6 6 5 5 5 5 5 6 7 9 7 6 6 6 6 6 6 8 7 7 6 6 6 7 8 7
3 4 4 4 4 4 4 4 5 5 5 5 4 4 5 5 5 5 5 5 6 6 7 7 6 7 9 9 8 7 6 6 7 6 7 7 8 8 7 8 7 7 7
3 4 4 4 4 4 4 4 5 5 5 5 5 5 5 5 5 5 6 6 6 6 7 6 8 9 9 8 9 9 7 7 8 9 7 7 7 7 7 6 8 7 7
Wind_Direction
195 190 188 189 189 187 186 179 183 176 172 180 183 179 164 167 167 161 174 162 166 143 133 125 120 100 110 116 129 128 25 6 106 100 107 102 110 96 100 66 95 112 101
192 191 189 185 187 190 186 186 187 179 177 178 172 171 161 176 180 164 161 167 159 145 134 134 131 125 120 105 117 120 83 12 124 127 134 122 107 70 48 24 41 49 75
186 192 193 189 189 192 189 184 189 188 182 182 181 182 172 176 177 171 169 165 150 143 145 138 128 132 134 122 140 131 118 101 86 161 127 109 136 72 33 2 326 4 354
178 187 192 189 189 194 188 186 193 191 190 190 187 186 186 185 186 185 172 171 164 150 143 135 135 143 139 143 153 146 137 136 138 152 147 155 155 160 263 297 298 281 282
179 186 192 186 178 186 185 193 193 190 197 195 193 192 191 194 188 190 182 181 174 167 155 149 118 85 55 43 28 156 160 173 173 182 188 201 195 204 250 271 284 286 269
183 187 180 180 173 181 185 189 189 193 198 193 200 199 193 175 121 152 229 184 180 182 178 167 148 158 144 146 108 45 6 232 219 212 228 239 248 240 257 262 269 276 283
186 183 181 182 176 179 178 178 185 192 191 196 198 196 196 158 144 167 212 223 193 190 192 177 163 160 195 185 168 177 185 231 281 278 269 274 269 263 255 261 269 281 291
185 182 179 182 179 177 179 186 199 195 185 194 196 198 194 160 154 173 194 222 205 193 200 200 188 187 173 222 199 197 196 190 221 245 274 295 312 307 273 275 282 280 269
189 190 183 183 180 181 183 189 192 191 187 192 193 196 193 172 158 179 201 206 207 202 199 203 207 205 116 182 231 224 217 196 133 57 3 15 33 13 317 263 256 254 266
194 195 188 184 181 187 192 189 182 187 190 189 186 197 193 187 153 176 212 210 209 206 200 186 150 228 130 189 231 231 233 226 207 189 196 200 216 196 230 247 253 265 277
184 181 182 180 181 182 183 186 186 184 184 192 188 192 197 188 153 163 203 229 217 216 210 205 164 146 165 197 244 253 284 286 234 239 232 212 214 221 225 249 267 276 276
173 175 179 178 178 178 177 186 190 185 189 196 201 195 197 178 162 161 180 226 262 225 221 218 154 147 173 206 231 165 103 229 230 223 231 235 240 247 253 260 270 274 282
177 180 181 179 179 187 187 187 191 195 202 206 208 210 201 184 157 157 179 194 215 232 214 103 124 164 186 198 196 187 193 218 223 228 240 245 250 264 266 266 267 275 276
183 184 184 180 181 185 195 200 200 204 209 211 214 220 214 198 192 179 186 189 188 206 204 149 160 180 209 217 180 194 219 235 245 246 255 266 263 251 248 253 257 256 263
188 186 188 183 183 189 190 210 220 217 228 225 224 226 225 221 198 188 215 211 211 207 204 198 199 195 205 209 215 217 222 223 238 253 255 252 244 245 248 248 254 257 262
195 191 190 189 188 193 186 166 61 245 120 190 276 254 244 244 155 178 200 201 187 187 207 214 216 219 226 228 229 230 231 235 239 245 250 252 251 251 253 248 247 253 262
205 202 198 199 198 200 200 197 194 176 167 202 212 218 224 201 181 183 190 191 190 190 213 226 229 227 230 234 238 243 245 244 242 244 248 251 251 253 255 253 250 255 262
205 203 209 210 211 209 209 212 216 217 216 216 202 203 207 206 197 193 190 188 198 204 225 234 237 237 235 237 240 244 247 246 244 248 252 253 253 254 257 258 256 259 263
205 206 216 220 218 215 215 216 220 227 230 227 218 194 195 200 201 205 198 213 218 216 223 233 239 240 238 238 240 242 243 245 249 251 254 255 255 257 262 265 263 262 262
208 201 215 222 221 219 219 220 222 225 229 231 230 222 192 199 213 208 212 224 229 229 228 232 237 241 242 241 240 240 242 242 244 247 253 256 253 251 255 260 265 264 260
209 201 205 220 225 226 227 228 227 229 232 235 237 229 217 223 226 224 222 226 231 235 235 235 237 238 241 242 242 241 243 245 243 245 249 253 253 254 254 254 256 257 261
218 216 219 224 227 230 234 236 237 236 235 237 238 225 214 229 233 232 231 232 235 237 239 238 239 239 239 240 243 245 246 247 247 246 248 250 252 252 252 251 252 255 255
222 220 227 228 229 224 230 236 238 240 241 241 240 237 229 232 234 237 237 239 239 240 239 238 240 242 242 241 242 245 248 250 251 250 249 249 248 249 248 249 250 254 254
224 221 222 225 228 228 233 237 240 241 242 243 242 241 240 239 238 240 243 245 245 243 242 242 244 247 248 250 247 245 249 256 260 257 252 253 251 250 248 248 248 249 250
229 227 227 225 228 232 236 239 240 239 241 244 246 248 248 246 247 247 246 244 246 247 248 248 246 248 251 251 253 254 255 256 256 262 258 254 253 250 248 247 246 247 246
228 230 234 232 233 235 237 241 243 243 244 247 250 253 254 253 252 253 252 248 247 248 251 250 249 252 254 254 254 254 252 249 247 253 257 254 252 249 248 247 248 247 244